TimeEDT,TemperatureF,Dew PointF,Humidity,Sea Level PressureIn,VisibilityMPH,Wind Direction,Wind SpeedMPH,Gust SpeedMPH,PrecipitationIn,Events,Conditions,WindDirDegrees,DateUTC
12:15 AM,55.4,23.0,29,30.03,10.0,Calm,Calm,-,N/A,,Clear,0,2012-11-03 04:15:00
12:35 AM,55.4,23.0,29,30.03,10.0,Calm,Calm,-,N/A,,Clear,0,2012-11-03 04:35:00
12:55 AM,55.4,23.0,29,30.03,10.0,Calm,Calm,-,N/A,,Clear,0,2012-11-03 04:55:00
1:15 AM,55.4,23.0,29,30.03,10.0,Calm,Calm,-,N/A,,Clear,0,2012-11-03 05:15:00
1:35 AM,53.6,23.0,30,30.04,10.0,Calm,Calm,-,N/A,,Clear,0,2012-11-03 05:35:00
1:55 AM,53.6,24.8,33,30.04,10.0,West,3.5,-,N/A,,Clear,260,2012-11-03 05:55:00
2:15 AM,53.6,24.8,33,30.04,10.0,Calm,Calm,-,N/A,,Clear,0,2012-11-03 06:15:00
2:35 AM,51.8,26.6,38,30.04,10.0,West,3.5,-,N/A,,Clear,270,2012-11-03 06:35:00
2:55 AM,51.8,26.6,38,30.04,10.0,Calm,Calm,-,N/A,,Clear,0,2012-11-03 06:55:00
3:15 AM,50.0,26.6,40,30.04,10.0,Calm,Calm,-,N/A,,Clear,0,2012-11-03 07:15:00
3:35 AM,50.0,26.6,40,30.04,10.0,Calm,Calm,-,N/A,,Clear,0,2012-11-03 07:35:00
3:55 AM,50.0,28.4,43,30.04,10.0,Calm,Calm,-,N/A,,Clear,0,2012-11-03 07:55:00
4:15 AM,50.0,28.4,43,30.04,10.0,Calm,Calm,-,N/A,,Clear,0,2012-11-03 08:15:00
4:35 AM,46.4,30.2,53,30.04,10.0,Calm,Calm,-,N/A,,Clear,0,2012-11-03 08:35:00
4:55 AM,48.2,28.4,46,30.04,10.0,Calm,Calm,-,N/A,,Clear,0,2012-11-03 08:55:00
5:15 AM,50.0,28.4,43,30.04,10.0,West,3.5,-,N/A,,Clear,260,2012-11-03 09:15:00
5:55 AM,48.2,28.4,46,30.04,10.0,Calm,Calm,-,N/A,,Clear,0,2012-11-03 09:55:00
6:15 AM,46.4,30.2,53,30.05,10.0,West,3.5,-,N/A,,Clear,270,2012-11-03 10:15:00
6:35 AM,46.4,28.4,50,30.06,10.0,Calm,Calm,-,N/A,,Clear,0,2012-11-03 10:35:00
6:55 AM,46.4,28.4,50,30.06,10.0,Calm,Calm,-,N/A,,Clear,0,2012-11-03 10:55:00
7:15 AM,48.2,28.4,46,30.06,10.0,Calm,Calm,-,N/A,,Clear,0,2012-11-03 11:15:00
7:35 AM,50.0,26.6,40,30.07,10.0,West,3.5,-,N/A,,Clear,280,2012-11-03 11:35:00
7:55 AM,50.0,26.6,40,30.07,10.0,West,3.5,-,N/A,,Clear,280,2012-11-03 11:55:00
8:15 AM,50.0,26.6,40,30.08,10.0,West,3.5,-,N/A,,Clear,270,2012-11-03 12:15:00
8:35 AM,48.2,28.4,46,30.08,10.0,WNW,3.5,-,N/A,,Clear,300,2012-11-03 12:35:00
8:55 AM,50.0,28.4,43,30.09,10.0,Calm,Calm,-,N/A,,Clear,0,2012-11-03 12:55:00
9:15 AM,53.6,26.6,35,30.11,10.0,Calm,Calm,-,N/A,,Clear,0,2012-11-03 13:15:00
9:35 AM,55.4,24.8,31,30.11,10.0,West,3.5,-,N/A,,Clear,280,2012-11-03 13:35:00
9:55 AM,57.2,28.4,33,30.11,10.0,Calm,Calm,-,N/A,,Clear,0,2012-11-03 13:55:00
10:15 AM,55.4,32.0,41,30.11,10.0,Calm,Calm,-,N/A,,Clear,0,2012-11-03 14:15:00
10:35 AM,59.0,32.0,36,30.12,10.0,South,3.5,-,N/A,,Clear,170,2012-11-03 14:35:00
10:55 AM,62.6,30.2,30,30.12,10.0,Calm,Calm,-,N/A,,Clear,0,2012-11-03 14:55:00
11:15 AM,64.4,28.4,26,30.12,10.0,South,4.6,-,N/A,,Clear,170,2012-11-03 15:15:00
11:35 AM,68.0,15.8,13,30.11,10.0,SSW,4.6,-,N/A,,Clear,210,2012-11-03 15:35:00
11:55 AM,69.8,14.0,12,30.11,10.0,Calm,Calm,-,N/A,,Clear,0,2012-11-03 15:55:00
12:15 PM,69.8,14.0,12,30.11,10.0,West,5.8,-,N/A,,Clear,270,2012-11-03 16:15:00
12:35 PM,71.6,19.4,14,30.11,10.0,WSW,4.6,-,N/A,,Clear,250,2012-11-03 16:35:00
12:55 PM,71.6,21.2,15,30.10,10.0,West,4.6,-,N/A,,Clear,270,2012-11-03 16:55:00
1:15 PM,75.2,19.4,12,30.09,10.0,Calm,Calm,-,N/A,,Clear,0,2012-11-03 17:15:00
1:35 PM,73.4,24.8,16,30.08,10.0,NW,4.6,-,N/A,,Mostly Cloudy,320,2012-11-03 17:35:00
1:55 PM,73.4,35.6,25,30.07,10.0,WNW,6.9,-,N/A,,Scattered Clouds,290,2012-11-03 17:55:00
2:15 PM,73.4,32.0,22,30.07,10.0,West,4.6,-,N/A,,Clear,270,2012-11-03 18:15:00
2:35 PM,75.2,32.0,21,30.06,10.0,NW,5.8,-,N/A,,Clear,310,2012-11-03 18:35:00
2:55 PM,77.0,33.8,21,30.05,10.0,WNW,4.6,-,N/A,,Clear,290,2012-11-03 18:55:00
3:15 PM,77.0,35.6,22,30.04,10.0,WNW,4.6,-,N/A,,Clear,300,2012-11-03 19:15:00
3:35 PM,77.0,35.6,22,30.04,10.0,SW,4.6,-,N/A,,Clear,230,2012-11-03 19:35:00
3:55 PM,77.0,35.6,22,30.03,10.0,West,4.6,-,N/A,,Clear,280,2012-11-03 19:55:00
4:15 PM,77.0,35.6,22,30.03,10.0,NW,4.6,-,N/A,,Clear,310,2012-11-03 20:15:00
4:35 PM,77.0,33.8,21,30.02,10.0,Calm,Calm,-,N/A,,Clear,0,2012-11-03 20:35:00
4:55 PM,77.0,33.8,21,30.02,10.0,West,3.5,-,N/A,,Clear,270,2012-11-03 20:55:00
5:15 PM,77.0,33.8,21,30.02,10.0,Calm,Calm,-,N/A,,Clear,0,2012-11-03 21:15:00
5:35 PM,75.2,35.6,24,30.02,10.0,West,3.5,-,N/A,,Clear,260,2012-11-03 21:35:00
5:55 PM,73.4,33.8,23,30.02,10.0,SW,5.8,-,N/A,,Clear,220,2012-11-03 21:55:00
6:15 PM,73.4,35.6,25,30.02,10.0,SW,4.6,-,N/A,,Clear,220,2012-11-03 22:15:00
6:35 PM,71.6,35.6,27,30.02,10.0,SW,3.5,-,N/A,,Clear,230,2012-11-03 22:35:00
6:55 PM,71.6,35.6,27,30.02,10.0,WSW,3.5,-,N/A,,Clear,240,2012-11-03 22:55:00
7:15 PM,71.6,35.6,27,30.01,10.0,Calm,Calm,-,N/A,,Clear,0,2012-11-03 23:15:00
7:35 PM,69.8,35.6,28,30.01,10.0,Calm,Calm,-,N/A,,Clear,0,2012-11-03 23:35:00
7:55 PM,69.8,35.6,28,30.01,10.0,Calm,Calm,-,N/A,,Clear,0,2012-11-03 23:55:00
8:15 PM,69.8,35.6,28,30.01,10.0,Calm,Calm,-,N/A,,Clear,0,2012-11-04 00:15:00
8:35 PM,64.4,39.2,40,30.02,10.0,Calm,Calm,-,N/A,,Clear,0,2012-11-04 00:35:00
8:55 PM,62.6,41.0,45,30.02,10.0,Calm,Calm,-,N/A,,Clear,0,2012-11-04 00:55:00
9:15 PM,64.4,41.0,42,30.02,10.0,Calm,Calm,-,N/A,,Clear,0,2012-11-04 01:15:00
9:35 PM,60.8,41.0,48,30.02,10.0,Calm,Calm,-,N/A,,Clear,0,2012-11-04 01:35:00
9:55 PM,60.8,42.8,52,30.02,10.0,Calm,Calm,-,N/A,,Clear,0,2012-11-04 01:55:00
10:15 PM,59.0,42.8,55,30.02,10.0,Calm,Calm,-,N/A,,Clear,0,2012-11-04 02:15:00
10:35 PM,60.8,42.8,52,30.02,10.0,Calm,Calm,-,N/A,,Clear,0,2012-11-04 02:35:00
10:55 PM,60.8,42.8,52,30.02,10.0,Calm,Calm,-,N/A,,Clear,0,2012-11-04 02:55:00
11:15 PM,60.8,42.8,52,30.03,10.0,Calm,Calm,-,N/A,,Clear,0,2012-11-04 03:15:00
11:35 PM,60.8,42.8,52,30.02,10.0,WSW,3.5,-,N/A,,Clear,250,2012-11-04 03:35:00
11:55 PM,60.8,42.8,52,30.03,10.0,SW,4.6,-,N/A,,Clear,230,2012-11-04 03:55:00